Regional Weather Roundup
Issued by NWS

Home | Current Version | Previous Version | Text Only | Print | Product List | Glossary Off
Versions: 1 2 3 4 5 6 7 8 9 10 11 12 13 14 15 16 17 18 19 20 21 22 23 24 25 26 27 28 29 30 31 32 33 34 35 36 37 38 39 40 41 42 43 44 45 46 47 48 49 50

000
ASUS43 KOAX 292202
RWRNE

WEATHER ROUNDUP FOR NEBRASKA
NATIONAL WEATHER SERVICE OMAHA NE
500 PM CDT SAT APR 29 2017

NOTES: SATELLITE DATA IS BEING USED TO AUGMENT CLOUD COVER ABOVE
       12000 FEET.
       "FAIR" INDICATES FEW OR NO CLOUDS BELOW 12,000 FEET WITH NO
       SIGNIFICANT WEATHER AND/OR OBSTRUCTIONS TO VISIBILITY.

  * THESE STATIONS DO NOT REPORT WEATHER SUCH AS RAIN...SNOW OR FOG.

NEZ001>004-019>022-054>056-292300-
NEBRASKA PANHANDLE

CITY           SKY/WX    TMP DP  RH WIND       PRES   REMARKS
SCOTTSBLUFF    CLOUDY    45  25  45 N15       30.20S
ALLIANCE       CLOUDY    46  20  35 NE17      30.15S
CHADRON        SUNNY     51  25  36 N12       30.19F
KIMBALL        CLOUDY    40  22  47 N14G24    30.17S WCI  32
SIDNEY         CLOUDY    43  25  49 N23       30.13F
$$

NEZ057>060-069>072-079>082-292300-
SOUTHWEST NEBRASKA

CITY           SKY/WX    TMP DP  RH WIND       PRES   REMARKS
NORTH PLATTE   CLOUDY    46  24  42 NE23G31   30.07F
IMPERIAL       CLOUDY    41  26  55 NE18G33   30.09F
LEXINGTON      CLOUDY    43  32  65 N23G32    30.03F
MCCOOK         CLOUDY    41  33  73 N23       30.02F
OGALLALA       CLOUDY    49  20  31 N26G32    30.09F
$$

NEZ005>010-023>029-035>040-094-292300-
NORTH CENTRAL NEBRASKA

CITY           SKY/WX    TMP DP  RH WIND       PRES   REMARKS
VALENTINE      SUNNY     54  13  19 NE16G24   30.15S
AINSWORTH      SUNNY     51  24  35 N20G29    30.12F
BROKEN BOW     CLOUDY    46  27  47 NE21G29   30.05F
O`NEILL        CLOUDY    50  21  32 NE22      30.09F
ORD            CLOUDY    46  28  49 N22G28    30.05F
THEDFORD       MOSUNNY   49  23  35 NE17G25   30.11F
$$

NEZ041-046>049-061>064-073>077-083>087-292300-
SOUTH CENTRAL NEBRASKA

CITY           SKY/WX    TMP DP  RH WIND       PRES   REMARKS
GRAND ISLAND   CLOUDY    44  32  62 N25G31    30.01S
AURORA         DRIZZLE   43  34  71 NE21G36   30.00S
HASTINGS       LGT RAIN  43  34  70 NE25G36   30.00R
HEBRON         LGT RAIN  41  40  95 NE20G28   29.93S
HOLDREGE       CLOUDY    43  32  65 N28G37    29.99F
KEARNEY *      CLOUDY    45  30  57 N24G35    30.01F
YORK           MIX PCPN  41  39  93 NE21G29   29.99F
$$

NEZ011>018-030>034-042>045-292300-
NORTHEAST NEBRASKA

CITY           SKY/WX    TMP DP  RH WIND       PRES   REMARKS
NORFOLK        CLOUDY    47  30  51 NE18      30.03F
ALBION         CLOUDY    47  31  52 NE17G25   30.05S
BLAIR          CLOUDY    45  37  74 NE22G32   29.96F
FREMONT        CLOUDY    46  35  66 N16G22    30.01S
TEKAMAH        CLOUDY    47  36  65 NE28G33   30.01F
WAYNE          CLOUDY    49  32  52 NE25      30.05F
$$

NEZ050>053-065>068-078-088>093-292300-
SOUTHEAST NEBRASKA

CITY           SKY/WX    TMP DP  RH WIND       PRES   REMARKS
LINCOLN        LGT RAIN  44  39  82 NE21G35   29.97F
OMAHA EPPLEY   CLOUDY    46  37  71 N18       29.97F
BEATRICE       LGT RAIN  43  41  95 NE23G33   29.92S
FALLS CITY     CLOUDY    45  42  89 NE16G22   29.88R
NEBRASKA CITY  LGT RAIN  42  42  98 NE23      29.92F
PLATTSMOUTH    LGT RAIN  42  38  86 N13G26    29.95F
$$

NEZ044-045-051>053-067-292300-
OMAHA AREA

CITY           SKY/WX    TMP DP  RH WIND       PRES   REMARKS
OMAHA EPPLEY   CLOUDY    46  37  71 N18       29.97F
BLAIR          CLOUDY    45  37  74 NE22G32   29.96F
FREMONT        CLOUDY    46  35  66 N16G22    30.01S
MILLARD        DRIZZLE   47  39  75 N10G21    29.97F
OFFUTT AFB     LGT RAIN  45  39  81 N16G24    29.96F
PLATTSMOUTH    LGT RAIN  42  38  86 N13G26    29.95F
WAHOO          CLOUDY    46  36  68 NE22G30   29.98F
$$



USA.gov is the U.S. government's official web portal to all federal, state and local government web resources and services.